Weather History for KPHP - May, 2013

Change the Weather History Date:

Monday, May 6, 2013

  Actual Average Record
Temperature  
Mean Temperature 50 °F 54 °F  
Max Temperature 73 °F 67 °F 89 °F (1963)
Min Temperature 26 °F 40 °F 22 °F (1976)
Degree Days  
Heating Degree Days 15 12  
Month to date heating degree days 136 75  
Since 1 July heating degree days 6886 6942  
Cooling Degree Days 0 1  
Month to date cooling degree days 0 1  
Year to date cooling degree days 0 4  
Moisture  
Dew Point 25 °F    
Average Humidity 49    
Maximum Humidity 81    
Minimum Humidity 17    
Precipitation  
Precipitation 0.00 in 0.10 in 1.80 in (2015)
Month to date precipitation 0.00 0.57  
Year to date precipitation 3.18 4.46  
Sea Level Pressure  
Sea Level Pressure 30.06 in    
Wind  
Wind Speed 5 mph (NNE)    
Max Wind Speed 13 mph    
Max Gust Speed 16 mph    
Visibility 10 miles    
Events      
T = Trace of Precipitation, MM = Missing Value Source: NWS Daily Summary

Daily Weather History Graph

Daily Weather History Graph

Search for Another Location

Airport or City:

Trip Planner

Search our weather history database for the weather conditions in past years. The results will help you decide how hot, cold, wet, or windy it might be!

Date:

Astronomy

May. 06, 2013 Rise Set
Actual Time 5:30 AM MDT 7:56 PM MDT
Civil Twilight 4:58 AM MDT 8:28 PM MDT
Nautical Twilight 4:18 AM MDT 9:09 PM MDT
Astronomical Twilight 3:32 AM MDT 9:54 PM MDT
Moon 3:40 AM MDT (5/6) 4:52 PM MDT (5/6)
Length of Visible Light 15h 30m
Length of Day
14h 25m
Waning Crescent, 10% of the Moon is Illuminated
May 6
Waning Crescent
May 9
New
May 17
First Quarter
May 24
Full
May 31
Last Quarter

Hourly Weather History & Observations

Time (MDT) Temp. Windchill Dew Point Humidity Pressure Visibility Wind Dir Wind Speed Gust Speed Precip Events Conditions
12:55 AM 33.1 °F 27.7 °F 23.0 °F 66% 30.15 in 10.0 mi West 5.8 mph - N/A   Clear
1:55 AM 28.9 °F 21.1 °F 21.9 °F 75% 30.14 in 10.0 mi WNW 8.1 mph - N/A   Clear
2:55 AM 28.9 °F 25.2 °F 21.9 °F 75% 30.14 in 10.0 mi West 3.5 mph - N/A   Clear
3:55 AM 28.0 °F 21.7 °F 21.0 °F 75% 30.13 in 10.0 mi West 5.8 mph - N/A   Clear
4:55 AM 26.1 °F 21.9 °F 21.0 °F 81% 30.13 in 10.0 mi WNW 3.5 mph - N/A   Clear
5:55 AM 28.0 °F 24.2 °F 21.9 °F 78% 30.13 in 10.0 mi West 3.5 mph - N/A   Clear
6:55 AM 34.0 °F 31.0 °F 25.0 °F 70% 30.14 in 10.0 mi WSW 3.5 mph - N/A   Clear
7:55 AM 43.0 °F - 27.0 °F 53% 30.13 in 10.0 mi Calm Calm - N/A   Clear
8:55 AM 50.0 °F - 28.0 °F 43% 30.14 in 10.0 mi WSW 3.5 mph - N/A   Clear
9:55 AM 59.0 °F - 27.0 °F 29% 30.11 in 10.0 mi Calm Calm - N/A   Clear
10:55 AM 64.0 °F - 21.9 °F 20% 30.10 in 10.0 mi SSE 4.6 mph - N/A   Clear
11:55 AM 66.0 °F - 24.1 °F 20% 30.08 in 10.0 mi Variable 3.5 mph - N/A   Clear
12:55 PM 69.1 °F - 25.0 °F 19% 30.06 in 10.0 mi NE 4.6 mph - N/A   Clear
1:55 PM 70.0 °F - 25.0 °F 18% 30.04 in 10.0 mi Variable 3.5 mph - N/A   Clear
2:55 PM 71.1 °F - 25.0 °F 18% 30.02 in 10.0 mi Variable 4.6 mph - N/A   Clear
3:55 PM 71.1 °F - 25.0 °F 18% 29.99 in 10.0 mi Variable 5.8 mph - N/A   Partly Cloudy
4:55 PM 70.0 °F - 25.0 °F 18% 29.98 in 10.0 mi NNE 6.9 mph - N/A   Mostly Cloudy
5:55 PM 68.0 °F - 26.1 °F 21% 29.98 in 10.0 mi East 9.2 mph - N/A   Overcast
6:55 PM 64.9 °F - 27.0 °F 24% 29.98 in 10.0 mi East 8.1 mph - N/A   Partly Cloudy
7:55 PM 57.9 °F - 28.0 °F 32% 29.97 in 10.0 mi East 5.8 mph - N/A   Partly Cloudy
8:55 PM 57.0 °F - 28.9 °F 34% 29.98 in 10.0 mi East 5.8 mph - N/A   Mostly Cloudy
9:55 PM 55.9 °F - 28.9 °F 36% 29.97 in 10.0 mi East 5.8 mph - N/A   Mostly Cloudy
10:55 PM 52.0 °F - 30.0 °F 43% 29.97 in 10.0 mi East 6.9 mph - N/A   Scattered Clouds
11:55 PM 52.0 °F - 32.0 °F 47% 29.96 in 10.0 mi ENE 4.6 mph - N/A   Scattered Clouds